| time (UTC) | temp F | wind direction | speed MPH | gust MPH | rain 1hr in | rain 24hr in | rain mn in | humidity % | barometer mb |
| 20260509064537 | 66 | 141 | 0.0 | 2.0 | 0.00 | 0.16 | 0.00 | 1 | 1009.4 |
| 20260509063014 | 66 | 141 | 0.0 | 1.0 | 0.00 | 0.16 | 0.00 | 1 | 1009.3 |
| 20260509061544 | 66 | 141 | 0.0 | 0.0 | 0.00 | 0.16 | 0.00 | 1 | 1008.7 |
| 20260509060028 | 66 | 140 | 0.0 | 3.0 | 0.00 | 0.16 | 0.00 | 1 | 1007.9 |
| 20260509054608 | 66 | 133 | 0.0 | 2.0 | 0.00 | 0.16 | 0.00 | 1 | 1007.8 |
| 20260509053031 | 66 | 133 | 0.0 | 0.0 | 0.00 | 0.16 | 0.00 | 1 | 1008.5 |
| 20260509051606 | 66 | 133 | 0.0 | 0.0 | 0.00 | 0.16 | 0.00 | 1 | 1009.0 |
| 20260509050035 | 66 | 133 | 0.0 | 0.0 | 0.00 | 0.16 | 0.00 | 1 | 1009.3 |
| 20260509044502 | 67 | 133 | 0.0 | 0.0 | 0.00 | 0.16 | 0.16 | 1 | 1009.3 |
| 20260509043034 | 67 | 133 | 0.0 | 0.0 | 0.00 | 0.16 | 0.16 | 1 | 1009.1 |
| 20260509041603 | 68 | 133 | 0.0 | 0.0 | 0.00 | 0.16 | 0.16 | 1 | 1008.7 |
| 20260509040031 | 68 | 133 | 0.0 | 0.0 | 0.00 | 0.16 | 0.16 | 1 | 1008.7 |
| 20260509034603 | 69 | 133 | 0.0 | 1.0 | 0.00 | 0.16 | 0.16 | 1 | 1008.0 |
| 20260509033036 | 70 | 153 | 0.0 | 0.0 | 0.00 | 0.16 | 0.16 | 1 | 1008.4 |
| 20260509031608 | 71 | 153 | 0.0 | 1.0 | 0.00 | 0.16 | 0.16 | 1 | 1008.1 |
| 20260509030030 | 70 | 153 | 0.0 | 0.0 | 0.00 | 0.16 | 0.16 | 1 | 1008.2 |
| 20260509024506 | 71 | 153 | 0.0 | 0.0 | 0.00 | 0.16 | 0.16 | 1 | 1009.0 |
| 20260509023044 | 71 | 152 | 0.0 | 1.0 | 0.00 | 0.16 | 0.16 | 1 | 1008.5 |
| 20260509021614 | 71 | 153 | 0.0 | 1.0 | 0.00 | 0.16 | 0.16 | 1 | 1008.2 |
| 20260509020035 | 71 | 152 | 0.0 | 2.0 | 0.00 | 0.16 | 0.16 | 1 | 1007.5 |
| 20260509014501 | 71 | 153 | 0.0 | 2.0 | 0.00 | 0.16 | 0.16 | 1 | 1007.0 |
| 20260509013035 | 72 | 137 | 0.0 | 1.0 | 0.00 | 0.16 | 0.16 | 1 | 1007.1 |
| 20260509011608 | 73 | 138 | 0.0 | 3.0 | 0.00 | 0.16 | 0.16 | 1 | 1007.0 |
| 20260509010045 | 73 | 119 | 0.0 | 0.0 | 0.00 | 0.16 | 0.16 | 1 | 1007.1 |
| 20260509004612 | 74 | 120 | 0.0 | 2.0 | 0.00 | 0.16 | 0.16 | 1 | 1007.0 |
| 20260509003028 | 74 | 120 | 0.0 | 3.0 | 0.00 | 0.16 | 0.16 | 1 | 1006.8 |
| 20260509001610 | 75 | 42 | 0.0 | 3.0 | 0.00 | 0.16 | 0.16 | 1 | 1006.6 |
| 20260509000027 | 75 | 111 | 1.0 | 6.0 | 0.00 | 0.16 | 0.16 | 1 | 1006.6 |
| 20260508234603 | 76 | 151 | 0.0 | 2.0 | 0.00 | 0.16 | 0.16 | 3 | 1006.6 |
| 20260508233027 | 76 | 152 | 1.0 | 4.0 | 0.00 | 0.16 | 0.16 | 18 | 1006.6 |
| 20260508231558 | 77 | 140 | 0.0 | 2.0 | 0.00 | 0.16 | 0.16 | 18 | 1006.8 |
| 20260508230023 | 77 | 241 | 0.0 | 4.0 | 0.00 | 0.16 | 0.16 | 17 | 1006.8 |
| 20260508224603 | 78 | 124 | 0.0 | 4.0 | 0.00 | 0.16 | 0.16 | 31 | 1006.8 |
| 20260508223036 | 78 | 83 | 0.0 | 2.0 | 0.00 | 0.16 | 0.16 | 28 | 1006.9 |
| 20260508221601 | 78 | 204 | 0.0 | 4.0 | 0.00 | 0.16 | 0.16 | 38 | 1006.9 |
| 20260508220027 | 79 | 95 | 0.0 | 3.0 | 0.00 | 0.16 | 0.16 | 43 | 1006.8 |
| 20260508214607 | 79 | 64 | 0.0 | 4.0 | 0.00 | 0.16 | 0.16 | 43 | 1006.8 |
| 20260508213023 | 79 | 95 | 1.0 | 4.0 | 0.00 | 0.16 | 0.16 | 46 | 1006.8 |
| 20260508211602 | 80 | 12 | 0.0 | 3.0 | 0.00 | 0.16 | 0.16 | 48 | 1007.2 |
| 20260508210024 | 80 | 103 | 0.0 | 2.0 | 0.00 | 0.16 | 0.16 | 45 | 1007.6 |
| 20260508204557 | 80 | 111 | 1.0 | 3.0 | 0.00 | 0.16 | 0.16 | 46 | 1008.1 |
| 20260508203021 | 79 | 84 | 0.0 | 3.0 | 0.00 | 0.16 | 0.16 | 40 | 1008.4 |
| 20260508201555 | 78 | 85 | 0.0 | 4.0 | 0.00 | 0.16 | 0.16 | 43 | 1008.5 |
| 20260508200025 | 77 | 100 | 0.0 | 1.0 | 0.00 | 0.16 | 0.16 | 42 | 1008.9 |
| 20260508194617 | 77 | 102 | 1.0 | 3.0 | 0.00 | 0.16 | 0.16 | 40 | 1009.0 |
| 20260508193030 | 77 | 119 | 0.0 | 3.0 | 0.01 | 0.16 | 0.16 | 37 | 1009.1 |
| 20260508191606 | 77 | 135 | 1.0 | 4.0 | 0.01 | 0.16 | 0.16 | 34 | 1009.2 |
| 20260508190030 | 76 | 177 | 0.0 | 2.0 | 0.01 | 0.16 | 0.16 | 31 | 1009.3 |
| 20260508184614 | 76 | 194 | 0.0 | 2.0 | 0.01 | 0.16 | 0.16 | 35 | 1009.6 |
| 20260508183040 | 76 | 141 | 0.0 | 3.0 | 0.00 | 0.15 | 0.15 | 27 | 1009.9 |
| 20260508181509 | 75 | 118 | 1.0 | 3.0 | 0.00 | 0.15 | 0.15 | 17 | 1010.2 |
| 20260508180049 | 74 | 95 | 0.0 | 4.0 | 0.00 | 0.15 | 0.15 | 24 | 1010.4 |
| 20260508174513 | 73 | 101 | 0.0 | 3.0 | 0.00 | 0.15 | 0.15 | 2 | 1010.7 |
| 20260508173049 | 72 | 102 | 0.0 | 4.0 | 0.00 | 0.15 | 0.15 | 1 | 1011.1 |
| 20260508171518 | 71 | 149 | 0.0 | 2.0 | 0.00 | 0.15 | 0.15 | 1 | 1011.7 |
| 20260508164525 | 67 | 179 | 0.0 | 3.0 | 0.01 | 0.15 | 0.15 | 1 | 1012.3 |
| 20260508163101 | 65 | 179 | 0.0 | 4.0 | 0.01 | 0.15 | 0.15 | 1 | 1012.5 |
| 20260508161529 | 64 | 131 | 0.0 | 1.0 | 0.01 | 0.15 | 0.15 | 1 | 1012.5 |
| 20260508160132 | 63 | 119 | 0.0 | 2.0 | 0.01 | 0.15 | 0.15 | 1 | 1012.5 |
| 20260508154534 | 62 | 119 | 0.0 | 1.0 | 0.00 | 0.14 | 0.14 | 1 | 1012.7 |
| 20260508153111 | 62 | 118 | 0.0 | 0.0 | 0.01 | 0.14 | 0.14 | 1 | 1012.8 |
| 20260508151546 | 62 | 118 | 0.0 | 0.0 | 0.01 | 0.14 | 0.14 | 1 | 1012.9 |
| 20260508150003 | 62 | 118 | 0.0 | 0.0 | 0.02 | 0.14 | 0.14 | 1 | 1013.0 |
| 20260508144546 | 62 | 118 | 0.0 | 1.0 | 0.02 | 0.14 | 0.14 | 1 | 1013.4 |
| 20260508143006 | 62 | 119 | 0.0 | 1.0 | 0.02 | 0.13 | 0.13 | 1 | 1013.1 |
| 20260508141555 | 60 | 359 | 0.0 | 1.0 | 0.03 | 0.13 | 0.13 | 1 | 1013.3 |
| 20260508140019 | 60 | 359 | 0.0 | 0.0 | 0.03 | 0.12 | 0.12 | 1 | 1013.4 |
| 20260508134555 | 60 | 359 | 0.0 | 0.0 | 0.03 | 0.12 | 0.12 | 1 | 1013.5 |
| 20260508133023 | 59 | 120 | 0.0 | 0.0 | 0.02 | 0.11 | 0.11 | 1 | 1013.5 |
| 20260508131557 | 59 | 359 | 0.0 | 0.0 | 0.01 | 0.10 | 0.10 | 1 | 1013.4 |
| 20260508130032 | 58 | 359 | 0.0 | 0.0 | 0.00 | 0.09 | 0.09 | 1 | 1013.3 |
| 20260508124606 | 58 | 119 | 0.0 | 1.0 | 0.01 | 0.09 | 0.09 | 1 | 1013.4 |
| 20260508123039 | 58 | 359 | 0.0 | 0.0 | 0.01 | 0.09 | 0.09 | 1 | 1014.0 |
| 20260508121511 | 58 | 118 | 0.0 | 0.0 | 0.02 | 0.09 | 0.09 | 1 | 1014.4 |
| 20260508120042 | 58 | 118 | 0.0 | 0.0 | 0.02 | 0.09 | 0.09 | 1 | 1014.0 |
| 20260508114508 | 58 | 118 | 0.0 | 2.0 | 0.01 | 0.08 | 0.08 | 1 | 1014.4 |
| 20260508113052 | 58 | 118 | 0.0 | 3.0 | 0.02 | 0.08 | 0.08 | 1 | 1013.2 |
| 20260508111516 | 58 | 129 | 0.0 | 1.0 | 0.03 | 0.07 | 0.07 | 1 | 1012.7 |
| 20260508104510 | 59 | 131 | 0.0 | 2.0 | 0.07 | 0.07 | 0.07 | 1 | 1013.1 |
| 20260508103107 | 59 | 129 | 0.0 | 1.0 | 0.06 | 0.06 | 0.06 | 1 | 1013.3 |
| 20260508101517 | 59 | 131 | 0.0 | 1.0 | 0.04 | 0.04 | 0.04 | 1 | 1012.6 |
| 20260508100049 | 59 | 359 | 0.0 | 0.0 | 0.00 | 0.00 | 0.00 | 1 | 1012.5 |
| 20260508094507 | 59 | 131 | 0.0 | 0.0 | 0.00 | 0.00 | 0.00 | 1 | 1012.4 |
| 20260508093052 | 59 | 131 | 0.0 | 0.0 | 0.00 | 0.00 | 0.00 | 1 | 1012.6 |
| 20260508091517 | 59 | 129 | 0.0 | 0.0 | 0.00 | 0.00 | 0.00 | 1 | 1012.7 |
| 20260508090054 | 60 | 131 | 0.0 | 0.0 | 0.00 | 0.00 | 0.00 | 1 | 1012.7 |
| 20260508084516 | 60 | 129 | 0.0 | 0.0 | 0.00 | 0.00 | 0.00 | 1 | 1013.0 |
| 20260508083130 | 60 | 130 | 0.0 | 0.0 | 0.00 | 0.00 | 0.00 | 1 | 1013.1 |
| 20260508081521 | 60 | 129 | 0.0 | 1.0 | 0.00 | 0.00 | 0.00 | 1 | 1013.5 |
| 20260508080105 | 60 | 359 | 0.0 | 2.0 | 0.00 | 0.00 | 0.00 | 1 | 1013.1 |
| 20260508074523 | 59 | 359 | 0.0 | 0.0 | 0.00 | 0.00 | 0.00 | 1 | 1013.9 |
| 20260508073100 | 59 | 131 | 0.0 | 0.0 | 0.00 | 0.00 | 0.00 | 1 | 1014.1 |
| 20260508071530 | 58 | 131 | 0.0 | 0.0 | 0.00 | 0.00 | 0.00 | 1 | 1013.9 |
| 20260508070059 | 58 | 131 | 0.0 | 0.0 | 0.00 | 0.00 | 0.00 | 1 | 1014.2 |